| time (UTC) | temp F | wind direction | speed MPH | gust MPH | rain 1hr in | rain 24hr in | rain mn in | humidity % | barometer mb |
| 20260504233109 | 64 | 34 | 6.0 | 13.0 | 0.00 | 0.00 | 0.00 | 39 | 1001.3 |
| 20260504231555 | 64 | 36 | 8.0 | 14.0 | 0.00 | 0.00 | 0.00 | 41 | 1001.3 |
| 20260504230053 | 63 | 355 | 10.0 | 22.0 | 0.00 | 0.00 | 0.00 | 41 | 1001.4 |
| 20260504224553 | 64 | 28 | 9.0 | 19.0 | 0.00 | 0.00 | 0.00 | 38 | 1001.5 |
| 20260504223051 | 64 | 26 | 8.0 | 21.0 | 0.00 | 0.00 | 0.00 | 39 | 1001.8 |
| 20260504221550 | 62 | 94 | 12.0 | 21.0 | 0.00 | 0.00 | 0.00 | 41 | 1002.1 |
| 20260504220052 | 62 | 151 | 3.0 | 7.0 | 0.00 | 0.00 | 0.00 | 40 | 1002.2 |
| 20260504214551 | 61 | 96 | 8.0 | 16.0 | 0.00 | 0.00 | 0.00 | 39 | 1002.3 |
| 20260504213053 | 62 | 80 | 8.0 | 16.0 | 0.00 | 0.00 | 0.00 | 40 | 1002.2 |
| 20260504211551 | 63 | 63 | 8.0 | 19.0 | 0.00 | 0.00 | 0.00 | 37 | 1001.9 |
| 20260504210049 | 64 | 26 | 4.0 | 10.0 | 0.00 | 0.00 | 0.00 | 36 | 1001.8 |
| 20260504204551 | 65 | 78 | 4.0 | 10.0 | 0.00 | 0.00 | 0.00 | 35 | 1001.8 |
| 20260504203052 | 65 | 46 | 3.0 | 10.0 | 0.00 | 0.00 | 0.00 | 35 | 1001.8 |
| 20260504201547 | 66 | 26 | 2.0 | 9.0 | 0.00 | 0.00 | 0.00 | 32 | 1001.9 |
| 20260504200049 | 66 | 313 | 3.0 | 6.0 | 0.00 | 0.00 | 0.00 | 30 | 1002.0 |
| 20260504194555 | 70 | 186 | 1.0 | 4.0 | 0.00 | 0.00 | 0.00 | 29 | 1002.0 |
| 20260504193048 | 69 | 227 | 1.0 | 12.0 | 0.00 | 0.00 | 0.00 | 30 | 1002.2 |
| 20260504191605 | 71 | 254 | 5.0 | 12.0 | 0.00 | 0.00 | 0.00 | 28 | 1002.2 |
| 20260504190046 | 70 | 209 | 4.0 | 12.0 | 0.00 | 0.00 | 0.00 | 31 | 1002.3 |
| 20260504184541 | 71 | 239 | 5.0 | 12.0 | 0.00 | 0.00 | 0.00 | 31 | 1002.5 |
| 20260504183040 | 71 | 239 | 4.0 | 14.0 | 0.00 | 0.00 | 0.00 | 33 | 1002.6 |
| 20260504181536 | 68 | 246 | 4.0 | 13.0 | 0.00 | 0.00 | 0.00 | 35 | 1002.9 |
| 20260504180036 | 68 | 252 | 6.0 | 12.0 | 0.00 | 0.00 | 0.00 | 33 | 1002.9 |
| 20260504174535 | 68 | 241 | 8.0 | 13.0 | 0.00 | 0.00 | 0.00 | 34 | 1002.9 |
| 20260504173033 | 67 | 212 | 5.0 | 11.0 | 0.00 | 0.00 | 0.00 | 34 | 1003.0 |
| 20260504171544 | 67 | 255 | 1.0 | 5.0 | 0.00 | 0.00 | 0.00 | 33 | 1003.3 |
| 20260504090106 | 56 | 126 | 4.0 | 10.0 | 0.00 | 0.00 | 0.00 | 35 | 1003.8 |
| 20260504081552 | 59 | 94 | 9.0 | 21.0 | 0.00 | 0.00 | 0.00 | 28 | 1003.6 |
| 20260504044531 | 57 | 101 | 5.0 | 9.0 | 0.00 | 0.00 | 0.00 | 32 | 1005.0 |
| 20260504043042 | 57 | 74 | 5.0 | 7.0 | 0.00 | 0.00 | 0.00 | 32 | 1005.0 |
| 20260504041535 | 58 | 86 | 4.0 | 7.0 | 0.00 | 0.00 | 0.00 | 32 | 1005.1 |
| 20260504040031 | 59 | 81 | 4.0 | 7.0 | 0.00 | 0.00 | 0.00 | 31 | 1005.0 |
| 20260504034530 | 59 | 94 | 1.0 | 6.0 | 0.00 | 0.00 | 0.00 | 30 | 1005.0 |
| 20260504033031 | 60 | 98 | 3.0 | 8.0 | 0.00 | 0.00 | 0.00 | 30 | 1004.9 |
| 20260504031529 | 60 | 85 | 3.0 | 5.0 | 0.00 | 0.00 | 0.00 | 30 | 1004.8 |
| 20260504030027 | 60 | 85 | 2.0 | 8.0 | 0.00 | 0.00 | 0.00 | 29 | 1004.8 |
| 20260504024528 | 61 | 96 | 2.0 | 7.0 | 0.00 | 0.00 | 0.00 | 28 | 1004.8 |
| 20260504023028 | 62 | 90 | 4.0 | 7.0 | 0.00 | 0.00 | 0.00 | 28 | 1004.7 |
| 20260504021526 | 62 | 88 | 5.0 | 9.0 | 0.00 | 0.00 | 0.00 | 28 | 1004.7 |
| 20260504020026 | 63 | 84 | 5.0 | 8.0 | 0.00 | 0.00 | 0.00 | 28 | 1004.8 |
| 20260504014533 | 64 | 93 | 6.0 | 8.0 | 0.00 | 0.00 | 0.00 | 29 | 1004.9 |
| 20260504013023 | 65 | 86 | 4.0 | 7.0 | 0.00 | 0.00 | 0.00 | 28 | 1004.9 |
| 20260504011523 | 67 | 11 | 1.0 | 3.0 | 0.00 | 0.00 | 0.00 | 23 | 1005.1 |
| 20260504010022 | 68 | 310 | 3.0 | 7.0 | 0.00 | 0.00 | 0.00 | 22 | 1005.2 |
| 20260504004521 | 68 | 5 | 2.0 | 6.0 | 0.00 | 0.00 | 0.00 | 23 | 1005.1 |
| 20260504003023 | 70 | 232 | 5.0 | 9.0 | 0.00 | 0.00 | 0.00 | 20 | 1005.2 |
| 20260504001520 | 71 | 225 | 0.0 | 5.0 | 0.00 | 0.00 | 0.00 | 22 | 1005.3 |
| 20260504000018 | 71 | 225 | 2.0 | 5.0 | 0.00 | 0.00 | 0.00 | 20 | 1005.4 |
| 20260503234519 | 71 | 281 | 2.0 | 5.0 | 0.00 | 0.00 | 0.00 | 19 | 1005.2 |